עמוד ראשי
METAR-TAF:

METAR-TAF

שדות תעופה :

Ambato, אקוודור

קו רוחב: 01-12-43S, קו אורך: 078-34-28W, גובה: 2591מטר

תצפית מזג אוויר נוכחית

הדו"ח נערך לפני 1 שעות ו 43דקות, בשעה 23:00 UTC
רוח 9קשר מכיוון דרום/דרום-מערב
טמפרטורת 17 צלסיוס
לחות 72%
לחץ 1027 hPa
ראות 10 קילומטר או יותר
עננים בינוניים בגובה 3000רגל

METAR: SEAM 202300Z 21009KT 9999 BKN030 17/12 Q1027

זמן: 19:43 (00:43 UTC)


TAF: חסר

תצפיות ותחזיות מזג אוויר לגבי יותר מ- 4,000 שדות תעופה ברחבי העולם. דוחות METAR ו- TAF.

התחנות הזמינות מסומנות בנקודות צהובות ואדומות על גבי המפה.

העבר את העכבר לנקודה הצבעונית על מנת לראות את שם התחנה.

לאחר מכן, לחץ כדי לראות את תוכן ואת תחזיות מזג האוויר.

כדי לשנות את המפה: לחץ על הכפתורים הירוקים עם הפלוס השחור כדי להתקרב; על הכפתור הירוק עם המקף כדי להתרחק; או בחיצים הירוקים למפות סמוכות.


METAR-TAF: